Hourly Data Report for September 17, 2017

All times are specified in Local Standard Time (LST). Add 1 hour to adjust for Daylight Saving Time where and when it is observed.

RANKIN INLET A
NUNAVUT

62°48'38.000" N
92°06'53.000" W
32.30 m
2303405
71083
YRT

Download Data

Hourly Data (September 2017)
Hourly Data Report for September 17, 2017
Temp Definition
°C
Dew Point Temp Definition
°C
Rel Hum Definition
%
Wind Dir Definition
10's deg

Wind Spd Definition
km/h
Visibility Definition
km
Stn Press Definition
kPa
Hmdx Definition


Wind Chill Definition


Weather Definition


TIME
00:00 Legend Double Dagger 5.3 5.1 99 13 11 0.4 101.82     Fog
01:00 Legend Double Dagger 5.0 4.8 99 13 13 0.6 101.84     Fog
02:00 Legend Double Dagger 5.5 5.3 99 14 13 0.4 101.87     Fog
03:00 Legend Double Dagger 4.6 4.5 99 14 12 0.4 101.86     Fog
04:00 Legend Double Dagger 4.3 4.2 99 14 12 0.6 101.85     Fog
05:00 Legend Double Dagger 4.3 4.2 99 14 11 0.4 101.84     Fog
06:00 Legend Double Dagger 4.7 4.5 99 16 13 0.2 101.83     Fog
07:00 Legend Double Dagger 5.0 4.9 99 17 12 0.2 101.82     Fog
08:00 Legend Double Dagger 5.3 5.2 99 17 8 0.2 101.79     Fog
09:00 Legend Double Dagger 6.0 5.9 99 14 9 0.8 101.74     Fog
10:00 Legend Double Dagger 6.2 6.0 99 14 13 0.6 101.71     Fog
11:00 Legend Double Dagger 6.7 6.6 99 15 16 0.4 101.71     Fog
12:00 Legend Double Dagger 7.7 6.8 94 18 19 12.9 101.71     Cloudy
13:00 Legend Double Dagger 7.7 5.6 86 16 22 16.1 101.69     LegendNANA
14:00 Legend Double Dagger 7.6 5.7 88 16 18 16.1 101.66     LegendNANA
15:00 Legend Double Dagger 6.8 5.6 92 14 16 12.9 101.63     Fog
16:00 Legend Double Dagger 5.0 4.7 98 15 17 0.6 101.60     Fog
17:00 Legend Double Dagger 4.8 4.5 98 17 18 0.6 101.56     Fog
18:00 Legend Double Dagger 4.4 4.2 99 16 17 0.6 101.53     Fog
19:00 Legend Double Dagger 3.9 3.7 99 15 18 0.8 101.49     Fog
20:00 Legend Double Dagger 3.8 3.6 99 15 18 0.8 101.48     Fog
21:00 Legend Double Dagger 3.5 3.3 99 17 21 0.8 101.48     Fog
22:00 Legend Double Dagger 3.3 3.2 99 17 16 1.6 101.47     Fog
23:00 Legend Double Dagger 3.1 3.0 99 14 16 2.4 101.41     Fog

Notes on Data Quality.

Legend

  • E = Estimated
  • M = Missing
  • NA = Not Available
  • ‡ = Partner data that is not subject to review by the National Climate Archives
Date modified: